Location: Devore Heights
(34.2372°N, 117.4156°W)
Time: 01:27:17
(UTC+00:00)

SR - Pass Details

Date: 17 September 2024
Orbit: 578 x 855 km, 66.7° (Epoch: 02 October)

Event Time Altitude Azimuth Distance (km) Brightness Sun altitude
Rises 05:24:27 0° 339° (NNW) 2,980 ? -41.1°
Enters shadow 05:26:16 - 343° (NNW) 2,277 ? -41.4°
Reaches altitude 10° 05:26:44 10° 344° (NNW) 2,107 - -41.5°
Maximum altitude 05:31:25 53° 62° (ENE) 878 - -42.2°
Drops below altitude 10° 05:36:28 10° 138° (SE) 2,277 - -42.9°
Sets 05:39:00 0° 143° (SE) 3,244 - -43.3°
